Weather History for Pian Rosa, Italy

Change the Weather History Date:

Thursday, December 13, 2012

  Actual Average Record
Temperature  
Mean Temperature 10 °F -  
Max Temperature 13 °F 18 °F 26 °F (2004)
Min Temperature 7 °F 8 °F -11 °F (2010)
Degree Days  
Heating Degree Days 56    
Moisture  
Dew Point -2 °F    
Average Humidity 56    
Maximum Humidity 85    
Minimum Humidity 19    
Precipitation  
Precipitation 0.00 in - - ()
Sea Level Pressure  
Sea Level Pressure 29.72 in    
Wind  
Wind Speed 9 mph ()    
Max Wind Speed 21 mph    
Max Gust Speed -    
Visibility 2.4 miles    
Events Fog , Snow    
Averages and records for this station are not official NWS values.
T = Trace of Precipitation, MM = Missing Value Source: Averaged Metar Reports

Daily Weather History Graph

Daily Weather History Graph

Search for Another Location

Airport:

Trip Planner

Search our weather history database for the weather conditions in past years. The results will help you decide how hot, cold, wet, or windy it might be!

Date:

Astronomy

Dec. 13, 2012 Rise Set
Actual Time 8:02 AM CET 4:44 PM CET
Civil Twilight 7:28 AM CET 5:18 PM CET
Nautical Twilight 6:50 AM CET 5:56 PM CET
Astronomical Twilight 6:14 AM CET 6:32 PM CET
Moon 7:53 AM CET (12/13) 5:09 PM CET (12/13)
Length of Visible Light 9h 50m
Length of Day
8h 41m
Waxing Crescent, 0% of the Moon is Illuminated
Dec 13
Waxing Crescent
Dec 20
First Quarter
Dec 28
Full
Jan 5
Last Quarter
Jan 11
New

Hourly Weather History & Observations

Time (CET) Temp. Windchill Dew Point Humidity Pressure Visibility Wind Dir Wind Speed Gust Speed Precip Events Conditions
1:00 AM 8 °F - -12 °F 23%  in 6 mi South 3.5 mph - -   Clear
1:55 AM 10.4 °F -2.4 °F -9.4 °F 41% 29.74 in - NW 9.2 mph - N/A   Clear
2:55 AM 12.2 °F 0.7 °F -9.4 °F 38% 29.74 in - NW 8.1 mph - N/A   Clear
3:55 AM 10.4 °F 0.8 °F -9.4 °F 41% 29.74 in - East 5.8 mph - N/A   Clear
4:00 AM 11 °F - -9 °F 23%  in 6 mi East 5.8 mph - -   Clear
4:55 AM 10.4 °F 0.8 °F -9.4 °F 41% 29.74 in - SSE 5.8 mph - N/A   Clear
5:55 AM 12.2 °F -0.2 °F -9.4 °F 38% 29.71 in - SW 9.2 mph - N/A   Clear
6:55 AM 10.4 °F -3.3 °F -11.2 °F 37% 29.71 in - SSW 10.4 mph - N/A   Clear
7:00 AM 11 °F - -12 °F 19%  in 6 mi SSW 10.4 mph - -  
7:55 AM 10.4 °F 0.8 °F -13.0 °F 34% 29.71 in - SSW 5.8 mph - N/A   Clear
8:55 AM 10.4 °F -5.4 °F -11.2 °F 37% 29.71 in 6.2 mi SW 13.8 mph - N/A   Partly Cloudy
9:55 AM 10.4 °F -6.6 °F -11.2 °F 37% 29.71 in 6.2 mi SSW 16.1 mph - N/A   Scattered Clouds
10:00 AM 10 °F - -10 °F 23%  in 25 mi SSW 16.1 mph - -   Partly Cloudy
10:55 AM 10.4 °F -6.6 °F -5.8 °F 48% 29.74 in 6.2 mi SSW 16.1 mph - N/A   Scattered Clouds
11:55 AM 10.4 °F -8.6 °F -2.2 °F 57% 29.74 in 6.2 mi SSW 20.7 mph - N/A   Scattered Clouds
12:55 PM 10.4 °F -6.6 °F 3.2 °F 73% 29.74 in 0.5 mi SW 16.1 mph - N/A Fog Light Freezing Fog
1:00 PM 11 °F - 3 °F 59%  in 0 mi SW 16.1 mph - - Fog Heavy Fog
1:55 PM 12.2 °F -1.0 °F 6.8 °F 79% 29.74 in 0.5 mi SSW 10.4 mph - N/A Fog Light Freezing Fog
2:55 PM 12.2 °F -0.2 °F 6.8 °F 79% 29.71 in 0.5 mi SSW 9.2 mph - N/A   Unknown
3:55 PM 12.2 °F -0.2 °F 8.6 °F 85% 29.74 in 0.5 mi SSW 9.2 mph - N/A Fog Light Freezing Fog
4:00 PM 12 °F - 8 °F 75%  in 0 mi SSW 9.2 mph - - Fog Heavy Fog
4:55 PM 12.2 °F -1.8 °F 8.6 °F 85% 29.71 in 0.5 mi SSW 11.5 mph - N/A Fog , Snow Light Snow
5:55 PM 12.2 °F -1.0 °F 8.6 °F 85% 29.71 in - SSW 10.4 mph - N/A Fog Light Freezing Fog
6:55 PM 12.2 °F -1.0 °F 8.6 °F 85% 29.71 in 0.5 mi South 10.4 mph - N/A Fog , Snow Light Snow
7:00 PM 12 °F - 9 °F 81%  in 0 mi South 10.4 mph - - Snow Light Snow
7:55 PM 12.2 °F -3.7 °F 8.6 °F 85% 29.71 in 0.3 mi South 15.0 mph - N/A Fog , Snow Light Snow
9:55 PM 12.2 °F -4.8 °F 8.6 °F 85% 29.71 in 0.1 mi South 17.3 mph - N/A Fog , Snow Light Snow
10:00 PM 13 °F - 8 °F 71%  in 0 mi South 17.3 mph - - Snow Light Snow